Year,Month,Day,Hour,Minute,Value (Times are PST for windspeed in km/hr)
2021,07,07,00,00,0.20
2021,07,07,00,01,0.00
2021,07,07,00,02,0.00
2021,07,07,00,03,0.00
2021,07,07,00,04,0.10
2021,07,07,00,05,0.10
2021,07,07,00,06,0.00
2021,07,07,00,07,0.00
2021,07,07,00,08,0.00
2021,07,07,00,09,0.10
2021,07,07,00,10,1.00
2021,07,07,00,11,1.50
2021,07,07,00,12,1.60
2021,07,07,00,13,1.50
2021,07,07,00,14,0.60
2021,07,07,00,15,0.30
2021,07,07,00,16,0.40
2021,07,07,00,17,0.30
2021,07,07,00,18,0.10
2021,07,07,00,19,0.00
2021,07,07,00,20,0.00
2021,07,07,00,21,0.00
2021,07,07,00,22,0.00
2021,07,07,00,23,0.00
2021,07,07,00,24,0.00
2021,07,07,00,25,0.00
2021,07,07,00,26,0.00
2021,07,07,00,27,0.00
2021,07,07,00,28,0.00
2021,07,07,00,29,0.00
2021,07,07,00,30,0.00
2021,07,07,00,31,0.10
2021,07,07,00,32,1.70
2021,07,07,00,33,2.40
2021,07,07,00,34,1.00
2021,07,07,00,35,1.80
2021,07,07,00,36,2.60
2021,07,07,00,37,4.20
2021,07,07,00,38,4.20
2021,07,07,00,39,3.40
2021,07,07,00,40,2.30
2021,07,07,00,41,2.10
2021,07,07,00,42,1.80
2021,07,07,00,43,0.70
2021,07,07,00,44,1.50
2021,07,07,00,45,1.00
2021,07,07,00,46,0.20
2021,07,07,00,47,0.20
2021,07,07,00,48,0.10
2021,07,07,00,49,0.20
2021,07,07,00,50,0.40
2021,07,07,00,51,0.20
2021,07,07,00,52,0.60
2021,07,07,00,53,1.10
2021,07,07,00,54,1.10
2021,07,07,00,55,0.80
2021,07,07,00,56,0.10
2021,07,07,00,57,1.20
2021,07,07,00,58,2.00
2021,07,07,00,59,0.40
2021,07,07,01,00,0.20
2021,07,07,01,01,0.20
2021,07,07,01,02,0.10
2021,07,07,01,03,0.20
2021,07,07,01,04,0.00
2021,07,07,01,05,0.20
2021,07,07,01,06,0.00
2021,07,07,01,07,0.00
2021,07,07,01,08,0.00
2021,07,07,01,09,0.00
2021,07,07,01,10,0.60
2021,07,07,01,11,0.00
2021,07,07,01,12,0.00
2021,07,07,01,13,0.00
2021,07,07,01,14,0.00
2021,07,07,01,15,0.00
2021,07,07,01,16,0.00
2021,07,07,01,17,0.00
2021,07,07,01,18,0.00
2021,07,07,01,19,0.00
2021,07,07,01,20,0.00
2021,07,07,01,21,0.00
2021,07,07,01,22,0.00
2021,07,07,01,23,0.00
2021,07,07,01,24,0.10
2021,07,07,01,25,0.00
2021,07,07,01,26,0.00
2021,07,07,01,27,0.00
2021,07,07,01,28,0.00
2021,07,07,01,29,0.00
2021,07,07,01,30,0.10
2021,07,07,01,31,1.60
2021,07,07,01,32,2.70
2021,07,07,01,33,3.90
2021,07,07,01,34,3.10
2021,07,07,01,35,2.30
2021,07,07,01,36,1.50
2021,07,07,01,37,2.10
2021,07,07,01,38,2.40
2021,07,07,01,39,2.50
2021,07,07,01,40,2.40
2021,07,07,01,41,1.50
2021,07,07,01,42,1.60
2021,07,07,01,43,2.00
2021,07,07,01,44,1.90
2021,07,07,01,45,1.50
2021,07,07,01,46,0.80
2021,07,07,01,47,0.20
2021,07,07,01,48,0.20
2021,07,07,01,49,0.10
2021,07,07,01,50,0.00
2021,07,07,01,51,0.00
2021,07,07,01,52,0.00
2021,07,07,01,53,0.00
2021,07,07,01,54,0.00
2021,07,07,01,55,0.00
2021,07,07,01,56,0.00
2021,07,07,01,57,0.00
2021,07,07,01,58,0.00
2021,07,07,01,59,0.00
2021,07,07,02,00,0.00
2021,07,07,02,01,0.00
2021,07,07,02,02,0.00
2021,07,07,02,03,0.00
2021,07,07,02,04,0.00
2021,07,07,02,05,0.00
2021,07,07,02,06,0.00
2021,07,07,02,07,0.00
2021,07,07,02,08,0.00
2021,07,07,02,09,0.00
2021,07,07,02,10,0.00
2021,07,07,02,11,0.00
2021,07,07,02,12,0.00
2021,07,07,02,13,0.00
2021,07,07,02,14,0.00
2021,07,07,02,15,0.00
2021,07,07,02,16,0.00
2021,07,07,02,17,0.00
2021,07,07,02,18,0.00
2021,07,07,02,19,0.00
2021,07,07,02,20,0.00
2021,07,07,02,21,0.00
2021,07,07,02,22,0.00
2021,07,07,02,23,0.00
2021,07,07,02,24,0.00
2021,07,07,02,25,0.50
2021,07,07,02,26,0.60
2021,07,07,02,27,0.40
2021,07,07,02,28,0.30
2021,07,07,02,29,0.60
2021,07,07,02,30,1.10
2021,07,07,02,31,0.10
2021,07,07,02,32,0.10
2021,07,07,02,33,0.00
2021,07,07,02,34,0.00
2021,07,07,02,35,0.00
2021,07,07,02,36,0.00
2021,07,07,02,37,0.00
2021,07,07,02,38,0.00
2021,07,07,02,39,0.00
2021,07,07,02,40,0.00
2021,07,07,02,41,0.00
2021,07,07,02,42,0.00
2021,07,07,02,43,0.00
2021,07,07,02,44,0.00
2021,07,07,02,45,0.00
2021,07,07,02,46,0.00
2021,07,07,02,47,0.00
2021,07,07,02,48,0.00
2021,07,07,02,49,0.00
2021,07,07,02,50,0.00
2021,07,07,02,51,0.00
2021,07,07,02,52,0.00
2021,07,07,02,53,0.00
2021,07,07,02,54,0.00
2021,07,07,02,55,0.00
2021,07,07,02,56,0.00
2021,07,07,02,57,0.00
2021,07,07,02,58,0.00
2021,07,07,02,59,0.00
2021,07,07,03,00,0.00
2021,07,07,03,01,0.00
2021,07,07,03,02,0.00
2021,07,07,03,03,0.00
2021,07,07,03,04,0.00
2021,07,07,03,05,0.00
2021,07,07,03,06,0.00
2021,07,07,03,07,0.00
2021,07,07,03,08,0.00
2021,07,07,03,09,0.00
2021,07,07,03,10,0.00
2021,07,07,03,11,0.00
2021,07,07,03,12,0.00
2021,07,07,03,13,0.00
2021,07,07,03,14,0.00
2021,07,07,03,15,0.00
2021,07,07,03,16,1.80
2021,07,07,03,17,1.20
2021,07,07,03,18,0.50
2021,07,07,03,19,0.50
2021,07,07,03,20,0.20
2021,07,07,03,21,0.10
2021,07,07,03,22,0.20
2021,07,07,03,23,0.60
2021,07,07,03,24,0.70
2021,07,07,03,25,0.30
2021,07,07,03,26,0.10
2021,07,07,03,27,0.10
2021,07,07,03,28,0.10
2021,07,07,03,29,0.00
2021,07,07,03,30,0.00
2021,07,07,03,31,0.00
2021,07,07,03,32,0.00
2021,07,07,03,33,0.00
2021,07,07,03,34,0.00
2021,07,07,03,35,0.00
2021,07,07,03,36,0.00
2021,07,07,03,37,0.00
2021,07,07,03,38,0.00
2021,07,07,03,39,0.40
2021,07,07,03,40,0.40
2021,07,07,03,41,0.50
2021,07,07,03,42,0.40
2021,07,07,03,43,0.50
2021,07,07,03,44,0.20
2021,07,07,03,45,0.00
2021,07,07,03,46,0.00
2021,07,07,03,47,0.10
2021,07,07,03,48,0.00
2021,07,07,03,49,0.00
2021,07,07,03,50,0.00
2021,07,07,03,51,0.00
2021,07,07,03,52,0.00
2021,07,07,03,53,0.00
2021,07,07,03,54,0.00
2021,07,07,03,55,0.00
2021,07,07,03,56,0.00
2021,07,07,03,57,0.00
2021,07,07,03,58,0.00
2021,07,07,03,59,0.00
2021,07,07,04,00,0.00
2021,07,07,04,01,0.00
2021,07,07,04,02,0.10
2021,07,07,04,03,0.60
2021,07,07,04,04,1.50
2021,07,07,04,08,1.60
2021,07,07,04,09,1.10
2021,07,07,04,10,0.20
2021,07,07,04,11,0.10
2021,07,07,04,12,0.10
2021,07,07,04,13,0.10
2021,07,07,04,14,0.20
2021,07,07,04,15,0.00
2021,07,07,04,16,0.30
2021,07,07,04,17,1.30
2021,07,07,04,18,0.80
2021,07,07,04,19,1.30
2021,07,07,04,20,1.30
2021,07,07,04,21,1.10
2021,07,07,04,22,1.60
2021,07,07,04,23,2.10
2021,07,07,04,24,1.50
2021,07,07,04,25,0.60
2021,07,07,04,26,0.00
2021,07,07,04,27,0.00
2021,07,07,04,28,0.10
2021,07,07,04,29,0.60
2021,07,07,04,30,0.40
2021,07,07,04,31,1.50
2021,07,07,04,32,0.90
2021,07,07,04,33,0.50
2021,07,07,04,34,0.50
2021,07,07,04,35,0.20
2021,07,07,04,36,0.10
2021,07,07,04,37,0.10
2021,07,07,04,38,0.00
2021,07,07,04,39,0.00
2021,07,07,04,40,0.00
2021,07,07,04,41,0.00
2021,07,07,04,42,0.00
2021,07,07,04,43,0.10
2021,07,07,04,44,0.00
2021,07,07,04,45,0.20
2021,07,07,04,46,1.90
2021,07,07,04,47,1.10
2021,07,07,04,48,1.20
2021,07,07,04,49,0.10
2021,07,07,04,50,0.60
2021,07,07,04,51,1.90
2021,07,07,04,52,2.50
2021,07,07,04,53,3.10
2021,07,07,04,54,2.80
2021,07,07,04,55,1.70
2021,07,07,04,56,0.90
2021,07,07,04,57,0.50
2021,07,07,04,58,0.10
2021,07,07,04,59,0.20
2021,07,07,05,00,0.50
2021,07,07,05,01,0.10
2021,07,07,05,02,0.10
2021,07,07,05,03,0.10
2021,07,07,05,04,0.10
2021,07,07,05,05,0.00
2021,07,07,05,06,0.10
2021,07,07,05,07,0.20
2021,07,07,05,08,0.00
2021,07,07,05,09,0.00
2021,07,07,05,10,0.00
2021,07,07,05,11,0.00
2021,07,07,05,12,0.10
2021,07,07,05,13,0.40
2021,07,07,05,14,0.10
2021,07,07,05,15,0.10
2021,07,07,05,16,0.00
2021,07,07,05,17,0.00
2021,07,07,05,18,0.00
2021,07,07,05,19,0.00
2021,07,07,05,20,0.00
2021,07,07,05,21,0.00
2021,07,07,05,22,0.00
2021,07,07,05,23,0.00
2021,07,07,05,24,0.00
2021,07,07,05,25,0.00
2021,07,07,05,26,0.00
2021,07,07,05,27,0.00
2021,07,07,05,28,0.00
2021,07,07,05,29,0.00
2021,07,07,05,30,0.00
2021,07,07,05,31,0.00
2021,07,07,05,32,0.00
2021,07,07,05,33,0.00
2021,07,07,05,34,0.00
2021,07,07,05,35,0.10
2021,07,07,05,36,0.00
2021,07,07,05,37,0.90
2021,07,07,05,38,0.50
2021,07,07,05,39,0.10
2021,07,07,05,40,0.00
2021,07,07,05,41,0.00
2021,07,07,05,42,0.00
2021,07,07,05,43,0.10
2021,07,07,05,44,0.00
2021,07,07,05,45,1.00
2021,07,07,05,46,0.20
2021,07,07,05,47,0.30
2021,07,07,05,48,1.20
2021,07,07,05,49,0.20
2021,07,07,05,50,0.50
2021,07,07,05,51,0.20
2021,07,07,05,52,0.50
2021,07,07,05,53,0.20
2021,07,07,05,54,0.20
2021,07,07,05,55,0.00
2021,07,07,05,56,0.10
2021,07,07,05,57,0.00
2021,07,07,05,58,0.00
2021,07,07,05,59,0.00
2021,07,07,06,00,0.00
2021,07,07,06,01,0.00
2021,07,07,06,02,0.00
2021,07,07,06,03,0.00
2021,07,07,06,04,0.00
2021,07,07,06,05,0.00
2021,07,07,06,06,0.00
2021,07,07,06,07,0.00
2021,07,07,06,08,0.00
2021,07,07,06,09,0.00
2021,07,07,06,10,0.00
2021,07,07,06,11,0.00
2021,07,07,06,12,0.00
2021,07,07,06,13,0.00
2021,07,07,06,14,0.00
2021,07,07,06,15,0.00
2021,07,07,06,16,0.60
2021,07,07,06,17,0.00
2021,07,07,06,18,0.00
2021,07,07,06,19,0.00
2021,07,07,06,20,0.10
2021,07,07,06,21,0.30
2021,07,07,06,22,0.70
2021,07,07,06,23,0.90
2021,07,07,06,24,1.10
2021,07,07,06,25,1.00
2021,07,07,06,26,0.90
2021,07,07,06,27,0.50
2021,07,07,06,28,0.90
2021,07,07,06,29,0.60
2021,07,07,06,30,1.10
2021,07,07,06,31,0.90
2021,07,07,06,32,0.70
2021,07,07,06,33,0.10
2021,07,07,06,34,0.00
2021,07,07,06,35,0.20
2021,07,07,06,36,0.00
2021,07,07,06,37,0.00
2021,07,07,06,38,0.00
2021,07,07,06,39,0.00
2021,07,07,06,40,0.80
2021,07,07,06,41,1.20
2021,07,07,06,42,0.10
2021,07,07,06,43,0.00
2021,07,07,06,44,0.00
2021,07,07,06,45,0.00
2021,07,07,06,46,0.00
2021,07,07,06,47,0.00
2021,07,07,06,48,0.00
2021,07,07,06,49,0.00
2021,07,07,06,50,0.00
2021,07,07,06,51,0.00
2021,07,07,06,52,0.00
2021,07,07,06,53,0.00
2021,07,07,06,54,0.00
2021,07,07,06,55,0.10
2021,07,07,06,56,0.00
2021,07,07,06,57,0.00
2021,07,07,06,58,0.00
2021,07,07,06,59,0.00
2021,07,07,07,00,0.00
2021,07,07,07,01,0.00
2021,07,07,07,02,0.00
2021,07,07,07,03,0.00
2021,07,07,07,04,0.00
2021,07,07,07,05,0.00
2021,07,07,07,06,0.00
2021,07,07,07,07,0.00
2021,07,07,07,08,0.00
2021,07,07,07,09,0.00
2021,07,07,07,10,0.00
2021,07,07,07,11,0.10
2021,07,07,07,12,0.40
2021,07,07,07,13,0.00
2021,07,07,07,14,0.40
2021,07,07,07,15,0.70
2021,07,07,07,16,0.80
2021,07,07,07,17,0.10
2021,07,07,07,18,0.00
2021,07,07,07,19,1.20
2021,07,07,07,20,1.80
2021,07,07,07,21,2.40
2021,07,07,07,22,0.10
2021,07,07,07,23,0.20
2021,07,07,07,24,0.50
2021,07,07,07,25,0.00
2021,07,07,07,26,0.00
2021,07,07,07,27,0.00
2021,07,07,07,28,0.00
2021,07,07,07,29,0.00
2021,07,07,07,30,0.00
2021,07,07,07,31,0.00
2021,07,07,07,32,0.00
2021,07,07,07,33,0.10
2021,07,07,07,34,0.00
2021,07,07,07,35,0.00
2021,07,07,07,36,0.00
2021,07,07,07,37,0.00
2021,07,07,07,38,0.00
2021,07,07,07,39,0.00
2021,07,07,07,40,0.00
2021,07,07,07,41,0.00
2021,07,07,07,42,0.00
2021,07,07,07,43,0.00
2021,07,07,07,44,0.00
2021,07,07,07,45,0.00
2021,07,07,07,46,0.00
2021,07,07,07,47,0.00
2021,07,07,07,48,0.00
2021,07,07,07,49,0.00
2021,07,07,07,50,0.00
2021,07,07,07,51,0.00
2021,07,07,07,52,0.00
2021,07,07,07,53,0.00
2021,07,07,07,54,0.00
2021,07,07,07,55,0.00
2021,07,07,07,56,0.00
2021,07,07,07,57,0.00
2021,07,07,07,58,0.00
2021,07,07,07,59,0.00
2021,07,07,08,00,0.00
2021,07,07,08,01,0.00
2021,07,07,08,02,0.00
2021,07,07,08,03,0.00
2021,07,07,08,04,0.00
2021,07,07,08,05,0.20
2021,07,07,08,06,0.10
2021,07,07,08,07,0.10
2021,07,07,08,08,1.20
2021,07,07,08,09,0.60
2021,07,07,08,10,0.00
2021,07,07,08,11,0.50
2021,07,07,08,12,0.40
2021,07,07,08,13,0.20
2021,07,07,08,14,0.00
2021,07,07,08,15,0.00
2021,07,07,08,16,0.00
2021,07,07,08,17,0.00
2021,07,07,08,18,0.00
2021,07,07,08,19,0.00
2021,07,07,08,20,0.00
2021,07,07,08,21,0.00
2021,07,07,08,22,0.00
2021,07,07,08,23,0.10
2021,07,07,08,24,0.30
2021,07,07,08,25,0.00
2021,07,07,08,26,0.00
2021,07,07,08,27,0.00
2021,07,07,08,28,0.00
2021,07,07,08,29,0.00
2021,07,07,08,30,0.10
2021,07,07,08,31,0.00
2021,07,07,08,32,0.00
2021,07,07,08,33,0.00
2021,07,07,08,34,1.60
2021,07,07,08,35,0.20
2021,07,07,08,36,0.20
2021,07,07,08,37,0.00
2021,07,07,08,38,0.00
2021,07,07,08,39,0.10
2021,07,07,08,40,0.80
2021,07,07,08,41,0.10
2021,07,07,08,42,0.00
2021,07,07,08,43,0.00
2021,07,07,08,44,0.00
2021,07,07,08,45,0.00
2021,07,07,08,46,0.00
2021,07,07,08,47,0.00
2021,07,07,08,48,0.00
2021,07,07,08,49,0.00
2021,07,07,08,50,0.00
2021,07,07,08,51,0.00
2021,07,07,08,52,0.10
2021,07,07,08,53,1.50
2021,07,07,08,54,1.20
2021,07,07,08,55,0.60
2021,07,07,08,56,0.10
2021,07,07,08,57,0.20
2021,07,07,08,58,0.80
2021,07,07,08,59,0.10
2021,07,07,09,00,0.20
2021,07,07,09,01,0.20
2021,07,07,09,02,0.50
2021,07,07,09,03,0.50
2021,07,07,09,04,0.10
2021,07,07,09,05,0.00
2021,07,07,09,06,0.10
2021,07,07,09,07,0.00
2021,07,07,09,08,0.30
2021,07,07,09,09,0.60
2021,07,07,09,10,0.40
2021,07,07,09,11,0.20
2021,07,07,09,12,0.00
2021,07,07,09,13,0.50
2021,07,07,09,14,1.10
2021,07,07,09,15,0.80
2021,07,07,09,16,2.40
2021,07,07,09,17,2.10
2021,07,07,09,18,2.60
2021,07,07,09,19,0.60
2021,07,07,09,20,0.20
2021,07,07,09,21,0.00
2021,07,07,09,22,0.20
2021,07,07,09,23,1.30
2021,07,07,09,24,0.20
2021,07,07,09,25,0.00
2021,07,07,09,26,0.40
2021,07,07,09,27,1.60
2021,07,07,09,28,0.80
2021,07,07,09,29,0.30
2021,07,07,09,30,1.70
2021,07,07,09,31,0.50
2021,07,07,09,32,1.00
2021,07,07,09,33,0.20
2021,07,07,09,34,0.40
2021,07,07,09,35,0.30
2021,07,07,09,36,0.30
2021,07,07,09,37,1.40
2021,07,07,09,38,0.50
2021,07,07,09,39,0.10
2021,07,07,09,40,1.60
2021,07,07,09,41,0.60
2021,07,07,09,42,0.80
2021,07,07,09,43,1.80
2021,07,07,09,44,1.60
2021,07,07,09,45,1.70
2021,07,07,09,46,3.00
2021,07,07,09,47,3.40
2021,07,07,09,48,1.40
2021,07,07,09,49,0.30
2021,07,07,09,50,0.70
2021,07,07,09,51,1.30
2021,07,07,09,52,3.80
2021,07,07,09,53,8.20
2021,07,07,09,54,7.10
2021,07,07,09,55,9.20
2021,07,07,09,56,4.80
2021,07,07,09,57,5.20
2021,07,07,09,58,4.70
2021,07,07,09,59,1.60
2021,07,07,10,00,1.20
2021,07,07,10,01,2.10
2021,07,07,10,02,0.10
2021,07,07,10,03,1.20
2021,07,07,10,04,0.20
2021,07,07,10,05,0.80
2021,07,07,10,06,0.70
2021,07,07,10,07,0.30
2021,07,07,10,08,0.80
2021,07,07,10,09,1.80
2021,07,07,10,10,1.20
2021,07,07,10,11,1.10
2021,07,07,10,12,2.30
2021,07,07,10,13,3.40
2021,07,07,10,14,3.10
2021,07,07,10,15,3.10
2021,07,07,10,16,2.50
2021,07,07,10,17,1.70
2021,07,07,10,18,3.30
2021,07,07,10,19,3.40
2021,07,07,10,20,3.70
2021,07,07,10,21,5.40
2021,07,07,10,22,5.00
2021,07,07,10,23,4.70
2021,07,07,10,24,3.30
2021,07,07,10,25,4.00
2021,07,07,10,26,4.40
2021,07,07,10,27,4.40
2021,07,07,10,28,3.80
2021,07,07,10,29,3.70
2021,07,07,10,30,4.20
2021,07,07,10,31,1.40
2021,07,07,10,32,2.20
2021,07,07,10,33,3.40
2021,07,07,10,34,3.00
2021,07,07,10,35,0.80
2021,07,07,10,36,0.30
2021,07,07,10,37,0.30
2021,07,07,10,38,2.40
2021,07,07,10,39,4.30
2021,07,07,10,40,1.50
2021,07,07,10,41,0.80
2021,07,07,10,42,1.70
2021,07,07,10,43,2.70
2021,07,07,10,44,4.20
2021,07,07,10,45,3.50
2021,07,07,10,46,3.70
2021,07,07,10,47,2.80
2021,07,07,10,48,1.60
2021,07,07,10,49,0.30
2021,07,07,10,50,0.80
2021,07,07,10,51,0.60
2021,07,07,10,52,3.10
2021,07,07,10,53,1.40
2021,07,07,10,54,3.30
2021,07,07,10,55,0.80
2021,07,07,10,56,2.00
2021,07,07,10,57,1.30
2021,07,07,10,58,1.50
2021,07,07,10,59,8.10
2021,07,07,11,00,8.60
2021,07,07,11,01,7.30
2021,07,07,11,02,7.90
2021,07,07,11,03,4.10
2021,07,07,11,04,11.00
2021,07,07,11,05,8.90
2021,07,07,11,06,4.00
2021,07,07,11,07,4.80
2021,07,07,11,08,3.30
2021,07,07,11,09,3.50
2021,07,07,11,10,7.90
2021,07,07,11,11,4.20
2021,07,07,11,12,8.60
2021,07,07,11,13,8.00
2021,07,07,11,14,9.80
2021,07,07,11,15,7.20
2021,07,07,11,16,7.60
2021,07,07,11,17,8.50
2021,07,07,11,18,6.40
2021,07,07,11,19,11.30
2021,07,07,11,20,9.90
2021,07,07,11,21,10.10
2021,07,07,11,22,5.60
2021,07,07,11,23,3.90
2021,07,07,11,24,12.60
2021,07,07,11,25,12.00
2021,07,07,11,26,11.80
2021,07,07,11,27,14.60
2021,07,07,11,28,9.70
2021,07,07,11,29,12.00
2021,07,07,11,30,12.20
2021,07,07,11,31,8.90
2021,07,07,11,32,8.30
2021,07,07,11,33,9.70
2021,07,07,11,34,8.80
2021,07,07,11,35,8.30
2021,07,07,11,36,7.80
2021,07,07,11,37,14.00
2021,07,07,11,38,10.90
2021,07,07,11,39,12.20
2021,07,07,11,40,12.30
2021,07,07,11,41,9.60
2021,07,07,11,42,9.40
2021,07,07,11,43,10.00
2021,07,07,11,44,8.50
2021,07,07,11,45,12.50
2021,07,07,11,46,13.80
2021,07,07,11,47,16.50
2021,07,07,11,48,8.80
2021,07,07,11,49,13.20
2021,07,07,11,50,10.90
2021,07,07,11,51,8.90
2021,07,07,11,52,9.70
2021,07,07,11,53,8.90
2021,07,07,11,54,14.40
2021,07,07,11,55,8.40
2021,07,07,11,56,9.60
2021,07,07,11,57,12.50
2021,07,07,11,58,9.20
2021,07,07,11,59,13.60
2021,07,07,12,00,10.60
2021,07,07,12,01,7.50
2021,07,07,12,02,14.10
2021,07,07,12,03,10.40
2021,07,07,12,04,17.60
2021,07,07,12,05,11.30
2021,07,07,12,06,15.90
2021,07,07,12,07,14.40
2021,07,07,12,08,12.20
2021,07,07,12,09,8.40
2021,07,07,12,10,5.80
2021,07,07,12,11,7.70
2021,07,07,12,12,8.50
2021,07,07,12,13,8.30
2021,07,07,12,14,13.00
2021,07,07,12,15,17.20
2021,07,07,12,16,15.50
2021,07,07,12,17,14.00
2021,07,07,12,18,9.10
2021,07,07,12,19,6.50
2021,07,07,12,20,9.00
2021,07,07,12,21,8.50
2021,07,07,12,22,18.30
2021,07,07,12,23,13.70
2021,07,07,12,24,13.30
2021,07,07,12,25,11.70
2021,07,07,12,26,12.80
2021,07,07,12,27,17.40
2021,07,07,12,28,10.60
2021,07,07,12,29,11.70
2021,07,07,12,30,12.30
2021,07,07,12,31,17.70
2021,07,07,12,32,20.50
2021,07,07,12,33,13.90
2021,07,07,12,34,9.50
2021,07,07,12,35,17.60
2021,07,07,12,36,17.50
2021,07,07,12,37,18.60
2021,07,07,12,38,21.90
2021,07,07,12,39,12.40
2021,07,07,12,40,10.70
2021,07,07,12,41,17.60
2021,07,07,12,42,17.10
2021,07,07,12,43,14.20
2021,07,07,12,44,19.30
2021,07,07,12,45,18.10
2021,07,07,12,46,15.00
2021,07,07,12,47,17.20
2021,07,07,12,48,16.60
2021,07,07,12,49,12.40
2021,07,07,12,50,21.30
2021,07,07,12,51,12.70
2021,07,07,12,52,10.60
2021,07,07,12,53,8.00
2021,07,07,12,54,13.90
2021,07,07,12,55,13.00
2021,07,07,12,56,11.40
2021,07,07,12,57,9.90
2021,07,07,12,58,9.30
2021,07,07,12,59,12.90
2021,07,07,13,00,18.20
2021,07,07,13,01,20.80
2021,07,07,13,02,17.40
2021,07,07,13,03,15.20
2021,07,07,13,04,19.50
2021,07,07,13,05,18.60
2021,07,07,13,06,12.00
2021,07,07,13,07,18.20
2021,07,07,13,08,15.90
2021,07,07,13,09,12.90
2021,07,07,13,10,14.00
2021,07,07,13,11,13.20
2021,07,07,13,12,16.70
2021,07,07,13,13,12.70
2021,07,07,13,14,19.30
2021,07,07,13,15,11.70
2021,07,07,13,16,12.20
2021,07,07,13,17,10.10
2021,07,07,13,18,13.10
2021,07,07,13,19,12.00
2021,07,07,13,20,11.30
2021,07,07,13,21,14.50
2021,07,07,13,22,17.80
2021,07,07,13,23,14.80
2021,07,07,13,24,12.50
2021,07,07,13,25,14.80
2021,07,07,13,26,13.60
2021,07,07,13,27,12.30
2021,07,07,13,28,8.40
2021,07,07,13,29,9.10
2021,07,07,13,30,16.30
2021,07,07,13,31,13.60
2021,07,07,13,32,8.00
2021,07,07,13,33,15.10
2021,07,07,13,34,15.10
2021,07,07,13,35,20.00
2021,07,07,13,36,14.00
2021,07,07,13,37,9.30
2021,07,07,13,38,10.80
2021,07,07,13,39,13.80
2021,07,07,13,40,19.50
2021,07,07,13,41,14.40
2021,07,07,13,42,14.90
2021,07,07,13,43,13.80
2021,07,07,13,44,11.30
2021,07,07,13,45,11.00
2021,07,07,13,46,10.60
2021,07,07,13,47,13.10
2021,07,07,13,48,16.20
2021,07,07,13,49,14.80
2021,07,07,13,50,13.50
2021,07,07,13,51,11.20
2021,07,07,13,52,13.50
2021,07,07,13,53,11.70
2021,07,07,13,54,14.30
2021,07,07,13,55,9.60
2021,07,07,13,56,8.90
2021,07,07,13,57,12.30
2021,07,07,13,58,11.50
2021,07,07,13,59,10.00
2021,07,07,14,00,17.70
2021,07,07,14,01,18.60
2021,07,07,14,02,8.90
2021,07,07,14,03,10.10
2021,07,07,14,04,8.20
2021,07,07,14,05,12.90
2021,07,07,14,06,13.00
2021,07,07,14,07,11.60
2021,07,07,14,08,13.10
2021,07,07,14,09,7.60
2021,07,07,14,10,7.90
2021,07,07,14,11,10.10
2021,07,07,14,12,11.80
2021,07,07,14,13,6.70
2021,07,07,14,14,18.20
2021,07,07,14,15,17.40
2021,07,07,14,16,15.40
2021,07,07,14,17,13.00
2021,07,07,14,18,14.20
2021,07,07,14,19,16.40
2021,07,07,14,20,15.20
2021,07,07,14,21,16.40
2021,07,07,14,22,14.80
2021,07,07,14,23,13.40
2021,07,07,14,24,10.70
2021,07,07,14,25,16.80
2021,07,07,14,26,16.90
2021,07,07,14,27,13.40
2021,07,07,14,28,12.10
2021,07,07,14,29,16.50
2021,07,07,14,30,8.80
2021,07,07,14,31,9.00
2021,07,07,14,32,11.70
2021,07,07,14,33,19.80
2021,07,07,14,34,14.60
2021,07,07,14,35,16.20
2021,07,07,14,36,20.20
2021,07,07,14,37,16.70
2021,07,07,14,38,20.30
2021,07,07,14,39,22.40
2021,07,07,14,40,20.80
2021,07,07,14,41,14.70
2021,07,07,14,42,16.20
2021,07,07,14,43,18.40
2021,07,07,14,44,15.10
2021,07,07,14,45,15.90
2021,07,07,14,46,13.70
2021,07,07,14,47,12.00
2021,07,07,14,48,12.20
2021,07,07,14,49,11.60
2021,07,07,14,50,8.50
2021,07,07,14,51,11.90
2021,07,07,14,52,15.50
2021,07,07,14,53,13.00
2021,07,07,14,54,13.60
2021,07,07,14,55,14.30
2021,07,07,14,56,14.40
2021,07,07,14,57,14.20
2021,07,07,14,58,17.80
2021,07,07,14,59,21.30
2021,07,07,15,00,16.70
2021,07,07,15,01,12.60
2021,07,07,15,02,19.50
2021,07,07,15,03,20.80
2021,07,07,15,04,13.00
2021,07,07,15,05,16.30
2021,07,07,15,06,15.80
2021,07,07,15,07,16.50
2021,07,07,15,08,17.50
2021,07,07,15,09,9.80
2021,07,07,15,10,17.80
2021,07,07,15,11,14.40
2021,07,07,15,12,12.30
2021,07,07,15,13,17.70
2021,07,07,15,14,13.90
2021,07,07,15,15,15.90
2021,07,07,15,16,15.20
2021,07,07,15,17,15.20
2021,07,07,15,18,14.40
2021,07,07,15,19,10.10
2021,07,07,15,20,12.00
2021,07,07,15,21,11.50
2021,07,07,15,22,15.40
2021,07,07,15,23,11.30
2021,07,07,15,24,11.40
2021,07,07,15,25,6.90
2021,07,07,15,26,10.10
2021,07,07,15,27,11.00
2021,07,07,15,28,12.10
2021,07,07,15,29,10.10
2021,07,07,15,30,14.50
2021,07,07,15,31,15.40
2021,07,07,15,32,14.50
2021,07,07,15,33,14.30
2021,07,07,15,34,10.40
2021,07,07,15,35,14.00
2021,07,07,15,36,11.30
2021,07,07,15,37,11.40
2021,07,07,15,38,13.30
2021,07,07,15,39,15.70
2021,07,07,15,40,12.00
2021,07,07,15,41,10.40
2021,07,07,15,42,10.70
2021,07,07,15,43,12.90
2021,07,07,15,44,17.00
2021,07,07,15,45,14.30
2021,07,07,15,46,15.10
2021,07,07,15,47,23.20
2021,07,07,15,48,22.50
2021,07,07,15,49,10.80
2021,07,07,15,50,12.70
2021,07,07,15,51,12.70
2021,07,07,15,52,14.10
2021,07,07,15,53,14.30
2021,07,07,15,54,12.60
2021,07,07,15,55,15.90
2021,07,07,15,56,17.70
2021,07,07,15,57,19.20
2021,07,07,15,58,15.30
2021,07,07,15,59,15.00
2021,07,07,16,00,16.60
2021,07,07,16,01,14.90
2021,07,07,16,02,15.10
2021,07,07,16,03,20.80
2021,07,07,16,04,20.50
2021,07,07,16,05,16.40
2021,07,07,16,06,15.80
2021,07,07,16,07,12.40
2021,07,07,16,08,13.00
2021,07,07,16,09,12.40
2021,07,07,16,10,13.30
2021,07,07,16,11,17.20
2021,07,07,16,12,21.30
2021,07,07,16,13,15.70
2021,07,07,16,14,18.70
2021,07,07,16,15,21.60
2021,07,07,16,16,26.20
2021,07,07,16,17,21.70
2021,07,07,16,18,17.60
2021,07,07,16,19,20.20
2021,07,07,16,20,22.50
2021,07,07,16,21,23.40
2021,07,07,16,22,18.90
2021,07,07,16,23,12.30
2021,07,07,16,24,19.10
2021,07,07,16,25,14.30
2021,07,07,16,26,13.90
2021,07,07,16,27,11.60
2021,07,07,16,28,20.20
2021,07,07,16,29,18.60
2021,07,07,16,30,15.40
2021,07,07,16,31,19.50
2021,07,07,16,32,19.30
2021,07,07,16,33,16.20
2021,07,07,16,34,17.20
2021,07,07,16,35,13.70
2021,07,07,16,36,19.10
2021,07,07,16,37,12.20
2021,07,07,16,38,15.30
2021,07,07,16,39,15.30
2021,07,07,16,40,12.00
2021,07,07,16,41,17.60
2021,07,07,16,42,21.10
2021,07,07,16,43,20.80
2021,07,07,16,44,17.40
2021,07,07,16,45,16.30
2021,07,07,16,46,16.90
2021,07,07,16,47,12.50
2021,07,07,16,48,20.80
2021,07,07,16,49,22.30
2021,07,07,16,50,21.50
2021,07,07,16,51,16.70
2021,07,07,16,52,18.10
2021,07,07,16,53,12.80
2021,07,07,16,54,13.40
2021,07,07,16,55,12.70
2021,07,07,16,56,16.70
2021,07,07,16,57,23.10
2021,07,07,16,58,18.30
2021,07,07,16,59,17.50
2021,07,07,17,00,16.60
2021,07,07,17,01,15.80
2021,07,07,17,02,15.60
2021,07,07,17,03,17.60
2021,07,07,17,04,14.00
2021,07,07,17,05,16.50
2021,07,07,17,06,14.80
2021,07,07,17,07,16.70
2021,07,07,17,08,13.00
2021,07,07,17,09,16.60
2021,07,07,17,10,20.20
2021,07,07,17,11,22.20
2021,07,07,17,12,17.20
2021,07,07,17,13,15.80
2021,07,07,17,14,13.00
2021,07,07,17,15,12.00
2021,07,07,17,16,13.70
2021,07,07,17,17,14.60
2021,07,07,17,18,12.50
2021,07,07,17,19,12.70
2021,07,07,17,20,10.00
2021,07,07,17,21,14.80
2021,07,07,17,22,15.90
2021,07,07,17,23,22.40
2021,07,07,17,24,11.50
2021,07,07,17,25,17.50
2021,07,07,17,26,12.60
2021,07,07,17,27,12.50
2021,07,07,17,28,14.30
2021,07,07,17,29,11.30
2021,07,07,17,30,13.70
2021,07,07,17,31,16.90
2021,07,07,17,32,21.10
2021,07,07,17,33,10.10
2021,07,07,17,34,15.90
2021,07,07,17,35,15.30
2021,07,07,17,36,11.30
2021,07,07,17,37,11.30
2021,07,07,17,38,12.70
2021,07,07,17,39,14.30
2021,07,07,17,40,12.00
2021,07,07,17,41,15.50
2021,07,07,17,42,22.00
2021,07,07,17,43,12.70
2021,07,07,17,44,11.30
2021,07,07,17,45,13.20
2021,07,07,17,46,17.70
2021,07,07,17,47,10.00
2021,07,07,17,48,17.20
2021,07,07,17,49,17.80
2021,07,07,17,50,17.90
2021,07,07,17,51,13.60
2021,07,07,17,52,15.10
2021,07,07,17,53,12.90